Powrót do katalogu

COSMOS 1157

AktywnyMilitariaLEO
NORAD 11692·PAYLOAD·🇷🇺 Russia

Wystrzelony Feb 11, 1980 z Plesetsk Cosmodrome

Loading…

Następne Przeloty (najbliższe 24 godziny)

TLE

ŚwieżeSource: Space-Track

Epoka: Sep 14, 2026, 07:12 UTC

1 11692U 80012B   26257.30030088 -.00000004  00000-0  74941-4 0  9998
2 11692  74.0250   9.7165 0039986 263.8682 123.9074 12.54570061133629

Śledź COSMOS 1157 w czasie rzeczywistym z AllMySat

Download on the App Store